.
WxDataArchive / Data Records for 2010-03-01
2010-02-28 March 2010 2010-03-02

Data Records for Monday, 01 March 2010

Time	Temp	Chill	HIndex	Humid	Dewpt	 Wind 	HiWind	WindDir	Rain 	Barom 
-----	----	-----	------	-----	-----	------	------	-------	-----	----- 
00:00	33.8	33.8	33.8	84	29.5	0	1	338	0.00	30.066 
00:05	33.8	33.8	33.8	84	29.5	0	2	338	0.00	30.066 
00:10	33.8	33.8	33.8	84	29.5	0	3	338	0.00	30.066 
00:15	33.7	33.7	33.7	84	29.4	0	3	248	0.00	30.065 
00:20	33.7	33.7	33.7	84	29.4	1	3	248	0.00	30.065 
00:25	33.7	33.7	33.7	84	29.4	1	2	270	0.00	30.065 
00:30	33.7	33.7	33.7	84	29.4	0	2	0	0.00	30.065 
00:35	33.7	33.7	33.7	84	29.4	1	3	315	0.00	30.065 
00:40	33.7	33.7	33.7	84	29.4	1	2	292	0.00	30.065 
00:45	33.7	33.7	33.7	83	29.1	0	2	292	0.00	30.073 
00:50	33.7	33.7	33.7	83	29.1	1	5	338	0.00	30.073 
00:55	33.7	33.7	33.7	83	29.1	0	2	338	0.00	30.073 
01:00	33.7	33.7	33.7	83	29.1	0	2	338	0.00	30.072 
01:05	33.5	33.5	33.5	84	29.2	1	3	248	0.00	30.072 
01:10	33.5	33.5	33.5	84	29.2	0	2	248	0.00	30.072 
01:15	33.5	33.5	33.5	84	29.2	0	2	338	0.00	30.074 
01:20	33.5	33.5	33.5	84	29.2	1	2	270	0.00	30.074 
01:25	33.4	33.4	33.4	84	29.1	0	2	292	0.00	30.074 
01:30	33.4	33.4	33.4	84	29.1	1	3	338	0.00	30.076 
01:35	33.4	33.4	33.4	84	29.1	1	3	338	0.00	30.076 
01:40	33.4	33.4	33.4	84	29.1	1	3	292	0.00	30.076 
01:45	33.4	33.4	33.4	84	29.1	1	3	315	0.00	30.076 
01:50	33.4	33.4	33.4	84	29.1	1	3	338	0.00	30.076 
01:55	33.4	33.4	33.4	84	29.1	1	3	315	0.00	30.076 
02:00	33.2	33.2	33.2	84	28.9	0	3	248	0.00	30.078 
02:05	33.2	33.2	33.2	84	28.9	1	4	248	0.00	30.078 
02:10	33.2	33.2	33.2	84	28.9	1	3	338	0.00	30.078 
02:15	33.2	33.2	33.2	85	29.2	0	2	338	0.00	30.079 
02:20	33.2	33.2	33.2	85	29.2	1	3	315	0.00	30.079 
02:25	33.2	33.2	33.2	85	29.2	1	3	270	0.00	30.079 
02:30	33.1	33.1	33.1	85	29.1	1	4	270	0.00	30.081 
02:35	33.1	33.1	33.1	85	29.1	1	3	248	0.00	30.081 
02:40	33.1	33.1	33.1	85	29.1	1	3	315	0.00	30.081 
02:45	33.1	33.1	33.1	85	29.1	1	4	270	0.00	30.080 
02:50	33.1	33.1	33.1	85	29.1	1	3	270	0.00	30.080 
02:55	33.1	33.1	33.1	85	29.1	0	2	292	0.00	30.080 
03:00	33.1	33.1	33.1	85	29.1	1	2	292	0.00	30.080 
03:05	33.1	33.1	33.1	85	29.1	0	2	292	0.00	30.080 
03:10	33.1	33.1	33.1	85	29.1	0	2	292	0.00	30.080 
03:15	33.1	33.1	33.1	85	29.1	1	2	292	0.00	30.080 
03:20	32.9	32.9	32.9	85	28.9	1	2	292	0.00	30.080 
03:25	32.9	32.9	32.9	85	28.9	0	1	338	0.00	30.080 
03:30	32.9	32.9	32.9	85	28.9	1	2	315	0.00	30.079 
03:35	32.9	32.9	32.9	85	28.9	1	3	315	0.00	30.079 
03:40	32.9	32.9	32.9	85	28.9	0	2	315	0.00	30.079 
03:45	32.9	32.9	32.9	86	29.2	1	3	270	0.00	30.078 
03:50	32.9	32.9	32.9	86	29.2	0	2	315	0.00	30.078 
03:55	32.9	32.9	32.9	86	29.2	0	2	315	0.00	30.078 
04:00	32.9	32.9	32.9	86	29.2	0	1	315	0.00	30.078 
04:05	32.8	32.8	32.8	86	29.1	1	3	315	0.00	30.078 
04:10	32.8	32.8	32.8	86	29.1	1	3	338	0.00	30.078 
04:15	32.8	32.8	32.8	86	29.1	0	2	338	0.00	30.079 
04:20	32.8	32.8	32.8	86	29.1	0	2	338	0.00	30.079 
04:25	32.8	32.8	32.8	87	29.4	0	1	338	0.00	30.079 
04:30	32.8	32.8	32.8	87	29.4	0	2	338	0.00	30.079 
04:35	32.8	32.8	32.8	87	29.4	0	2	338	0.00	30.079 
04:40	32.8	32.8	32.8	87	29.4	0	2	338	0.00	30.079 
04:45	32.8	32.8	32.8	87	29.4	0	1	338	0.00	30.078 
04:50	32.8	32.8	32.8	87	29.4	0	2	338	0.00	30.078 
04:55	32.8	32.8	32.8	87	29.4	0	3	292	0.00	30.078 
05:00	32.8	32.8	32.8	87	29.4	0	2	292	0.00	30.081 
05:05	32.7	32.7	32.7	87	29.3	0	2	292	0.00	30.081 
05:10	32.7	32.7	32.7	87	29.3	0	1	292	0.00	30.081 
05:15	32.7	32.7	32.7	87	29.3	0	2	292	0.00	30.087 
05:20	32.7	32.7	32.7	88	29.5	0	2	292	0.00	30.087 
05:25	32.7	32.7	32.7	88	29.5	0	1	315	0.00	30.087 
05:30	32.7	32.7	32.7	88	29.5	0	1	315	0.00	30.089 
05:35	32.7	32.7	32.7	88	29.5	0	2	315	0.00	30.089 
05:40	32.7	32.7	32.7	88	29.5	0	3	338	0.00	30.089 
05:45	32.7	32.7	32.7	88	29.5	0	3	315	0.00	30.093 
05:50	32.7	32.7	32.7	88	29.5	0	1	315	0.00	30.093 
05:55	32.7	32.7	32.7	88	29.5	0	1	315	0.00	30.093 
06:00	32.7	32.7	32.7	88	29.5	0	1	315	0.00	30.096 
06:05	32.5	32.5	32.5	88	29.3	0	1	315	0.00	30.096 
06:10	32.5	32.5	32.5	88	29.3	0	2	315	0.00	30.096 
06:15	32.5	32.5	32.5	88	29.3	0	1	315	0.00	30.100 
06:20	32.5	32.5	32.5	88	29.3	0	1	315	0.00	30.100 
06:25	32.5	32.5	32.5	88	29.3	0	1	315	0.00	30.100 
06:30	32.5	32.5	32.5	88	29.3	0	1	315	0.00	30.105 
06:35	32.5	32.5	32.5	88	29.3	0	0	---	0.00	30.105 
06:40	32.5	32.5	32.5	88	29.3	0	0	---	0.00	30.105 
06:45	32.5	32.5	32.5	88	29.3	0	0	---	0.00	30.107 
06:50	32.5	32.5	32.5	88	29.3	0	1	315	0.00	30.107 
06:55	32.5	32.5	32.5	88	29.3	0	0	---	0.00	30.107 
07:00	32.5	32.5	32.5	88	29.3	0	1	315	0.00	30.110 
07:05	32.5	32.5	32.5	88	29.3	0	1	315	0.00	30.110 
07:10	32.5	32.5	32.5	88	29.3	0	2	315	0.00	30.110 
07:15	32.5	32.5	32.5	88	29.3	0	1	315	0.00	30.114 
07:20	32.5	32.5	32.5	88	29.3	0	2	315	0.00	30.114 
07:25	32.5	32.5	32.5	88	29.3	0	0	---	0.00	30.114 
07:30	32.5	32.5	32.5	88	29.3	0	1	315	0.00	30.121 
07:35	32.5	32.5	32.5	89	29.6	0	2	315	0.00	30.121 
07:40	32.5	32.5	32.5	89	29.6	0	1	315	0.00	30.121 
07:45	32.5	32.5	32.5	89	29.6	0	1	315	0.00	30.129 
07:50	32.7	32.7	32.7	88	29.5	0	1	315	0.00	30.129 
07:55	32.7	32.7	32.7	88	29.5	0	2	315	0.00	30.129 
08:00	32.7	32.7	32.7	88	29.5	0	1	315	0.00	30.131 
08:05	32.8	32.8	32.8	88	29.6	0	1	315	0.00	30.131 
08:10	32.8	32.8	32.8	88	29.6	0	1	315	0.00	30.131 
08:15	32.9	32.9	32.9	88	29.7	0	0	---	0.00	30.137 
08:20	32.9	32.9	32.9	88	29.7	0	2	315	0.00	30.137 
08:25	33.1	33.1	33.1	88	29.9	0	1	315	0.00	30.137 
08:30	33.1	33.1	33.1	88	29.9	0	1	315	0.00	30.145 
08:35	33.2	33.2	33.2	88	30.0	0	1	315	0.00	30.145 
08:40	33.4	33.4	33.4	87	30.0	0	1	315	0.00	30.145 
08:45	33.4	33.4	33.4	87	30.0	0	1	315	0.00	30.150 
08:50	33.5	33.5	33.5	87	30.1	0	1	315	0.00	30.150 
08:55	33.5	33.5	33.5	86	29.8	0	1	315	0.00	30.150 
09:00	33.7	33.7	33.7	86	30.0	0	2	315	0.00	30.153 
09:05	33.8	33.8	33.8	86	30.1	1	3	315	0.00	30.153 
09:10	33.8	33.8	33.8	85	29.8	0	2	270	0.00	30.153 
09:15	33.8	33.8	33.8	85	29.8	0	2	315	0.00	30.151 
09:20	34.0	34.0	34.0	85	30.0	0	1	315	0.00	30.151 
09:25	34.1	34.1	34.1	84	29.8	0	1	315	0.00	30.151 
09:30	34.1	34.1	34.1	83	29.5	1	5	338	0.00	30.147 
09:35	34.3	34.3	34.3	83	29.7	0	1	338	0.00	30.147 
09:40	34.4	34.4	34.4	82	29.5	0	3	338	0.00	30.147 
09:45	34.4	34.4	34.4	81	29.2	1	2	315	0.00	30.145 
09:50	34.6	34.6	34.6	79	28.8	1	3	22	0.00	30.145 
09:55	34.7	34.7	34.7	78	28.6	1	3	22	0.00	30.145 
10:00	35.0	35.0	35.0	78	28.8	0	2	0	0.00	30.136 
10:05	35.3	35.3	35.3	78	29.1	0	2	0	0.00	30.136 
10:10	35.5	35.5	35.5	77	29.0	1	3	315	0.00	30.136 
10:15	35.6	35.6	35.6	76	28.8	0	2	338	0.00	30.134 
10:20	35.8	35.8	35.8	76	29.0	1	6	0	0.00	30.134 
10:25	36.0	36.0	36.0	75	28.9	1	3	0	0.00	30.134 
10:30	36.2	36.2	36.2	74	28.7	1	4	22	0.00	30.133 
10:35	36.6	36.6	36.6	73	28.8	1	4	0	0.00	30.133 
10:40	36.9	36.9	36.9	73	29.1	1	3	22	0.00	30.133 
10:45	37.3	37.3	37.3	73	29.5	0	2	22	0.00	30.130 
10:50	37.6	37.6	37.6	72	29.4	1	4	338	0.00	30.130 
10:55	37.8	37.8	37.8	71	29.3	1	4	112	0.00	30.130 
11:00	37.8	37.8	37.8	71	29.3	1	3	90	0.00	30.133 
11:05	37.9	37.9	37.9	71	29.4	1	3	68	0.00	30.133 
11:10	37.9	37.9	37.9	71	29.4	0	2	68	0.00	30.133 
11:15	37.9	37.9	37.9	70	29.0	0	3	225	0.00	30.145 
11:20	38.0	38.0	38.0	70	29.1	0	2	45	0.00	30.145 
11:25	38.3	38.3	38.3	70	29.4	0	2	45	0.00	30.145 
11:30	38.6	38.6	38.6	69	29.3	0	2	45	0.00	30.151 
11:35	38.8	38.8	38.8	69	29.5	0	1	45	0.00	30.151 
11:40	39.1	39.1	39.1	68	29.4	0	2	45	0.00	30.151 
11:45	39.2	39.2	39.2	68	29.5	0	1	45	0.00	30.158 
11:50	39.3	39.3	39.3	67	29.3	0	2	45	0.00	30.158 
11:55	39.5	39.5	39.5	67	29.5	0	1	45	0.00	30.158 
12:00	39.6	39.6	39.6	66	29.2	0	1	45	0.00	30.167 
12:05	39.6	39.6	39.6	66	29.2	1	5	315	0.00	30.167 
12:10	39.3	39.3	39.3	66	28.9	0	3	292	0.00	30.167 
12:15	39.6	39.6	39.6	67	29.6	0	3	292	0.00	30.169 
12:20	40.3	40.3	40.3	67	30.2	0	2	292	0.00	30.169 
12:25	41.1	41.1	41.1	67	31.0	1	3	292	0.00	30.169 
12:30	41.6	41.6	41.6	64	30.3	1	3	292	0.00	30.160 
12:35	41.6	41.6	41.6	63	30.0	1	2	292	0.00	30.160 
12:40	41.2	41.2	41.2	63	29.6	1	3	338	0.00	30.160 
12:45	41.2	41.2	41.2	63	29.6	1	2	338	0.00	30.161 
12:50	41.2	41.2	41.2	62	29.2	1	5	270	0.00	30.161 
12:55	41.1	41.1	41.1	64	29.9	1	4	248	0.00	30.161 
13:00	41.5	41.5	41.5	64	30.2	1	4	248	0.00	30.156 
13:05	41.9	41.9	41.9	63	30.2	0	3	248	0.00	30.156 
13:10	41.5	41.5	41.5	63	29.9	1	4	315	0.00	30.156 
13:15	41.6	41.6	41.6	64	30.3	0	2	315	0.00	30.142 
13:20	41.5	41.5	41.5	62	29.5	1	4	315	0.00	30.142 
13:25	41.3	41.3	41.3	62	29.3	1	4	90	0.00	30.142 
13:30	41.3	41.3	41.3	62	29.3	1	2	0	0.00	30.140 
13:35	41.2	41.2	41.2	62	29.2	0	2	0	0.00	30.140 
13:40	41.6	41.6	41.6	65	30.7	0	3	0	0.00	30.140 
13:45	42.2	42.2	42.2	62	30.1	1	3	0	0.00	30.133 
13:50	42.1	42.1	42.1	62	30.0	0	3	338	0.00	30.133 
13:55	41.5	41.5	41.5	62	29.5	1	3	338	0.00	30.133 
14:00	41.6	41.6	41.6	65	30.7	0	3	315	0.00	30.134 
14:05	42.2	42.2	42.2	63	30.5	1	4	270	0.00	30.134 
14:10	42.3	42.3	42.3	63	30.6	0	4	270	0.00	30.134 
14:15	42.3	42.3	42.3	62	30.2	1	3	22	0.00	30.124 
14:20	42.3	42.3	42.3	61	29.8	0	2	338	0.00	30.124 
14:25	42.2	42.2	42.2	62	30.1	1	2	315	0.00	30.124 
14:30	41.8	41.8	41.8	62	29.7	1	3	315	0.00	30.125 
14:35	41.9	41.9	41.9	62	29.8	0	2	338	0.00	30.125 
14:40	42.1	42.1	42.1	62	30.0	1	6	338	0.00	30.125 
14:45	42.2	42.2	42.2	61	29.7	1	5	315	0.00	30.121 
14:50	42.6	42.6	42.6	61	30.1	1	2	45	0.00	30.121 
14:55	42.8	42.8	42.8	60	29.9	1	3	315	0.00	30.121 
15:00	43.1	43.1	43.1	62	31.0	1	2	315	0.00	30.116 
15:05	43.1	43.1	43.1	59	29.8	1	3	338	0.00	30.116 
15:10	43.2	43.2	43.2	60	30.3	1	4	338	0.00	30.116 
15:15	43.2	43.2	43.2	59	29.9	1	3	270	0.00	30.116 
15:20	42.9	42.9	42.9	59	29.6	1	4	338	0.00	30.116 
15:25	42.9	42.9	42.9	60	30.0	0	2	22	0.00	30.116 
15:30	42.8	42.8	42.8	60	29.9	1	4	270	0.00	30.119 
15:35	42.5	42.5	42.5	60	29.6	1	4	270	0.00	30.119 
15:40	42.2	42.2	42.2	62	30.1	2	6	292	0.00	30.119 
15:45	42.3	42.3	42.3	61	29.8	1	3	338	0.00	30.124 
15:50	42.3	42.3	42.3	61	29.8	0	2	338	0.00	30.124 
15:55	42.6	42.6	42.6	60	29.7	1	3	338	0.00	30.124 
16:00	42.5	42.5	42.5	61	30.0	1	4	292	0.00	30.122 
16:05	42.6	42.6	42.6	61	30.1	1	4	292	0.00	30.122 
16:10	42.6	42.6	42.6	60	29.7	1	3	270	0.00	30.122 
16:15	42.6	42.6	42.6	60	29.7	0	3	0	0.00	30.118 
16:20	42.2	42.2	42.2	60	29.3	1	3	338	0.00	30.118 
16:25	42.2	42.2	42.2	61	29.7	1	4	292	0.00	30.118 
16:30	42.2	42.2	42.2	60	29.3	1	2	292	0.00	30.122 
16:35	42.2	42.2	42.2	61	29.7	1	2	292	0.00	30.122 
16:40	42.5	42.5	42.5	60	29.6	1	4	292	0.00	30.122 
16:45	42.5	42.5	42.5	58	28.8	1	3	315	0.00	30.120 
16:50	42.2	42.2	42.2	57	28.1	0	2	22	0.00	30.120 
16:55	42.1	42.1	42.1	58	28.4	1	3	22	0.00	30.120 
17:00	41.9	41.9	41.9	58	28.2	0	3	338	0.00	30.124 
17:05	41.6	41.6	41.6	58	27.9	0	2	338	0.00	30.124 
17:10	41.3	41.3	41.3	58	27.7	1	3	338	0.00	30.124 
17:15	41.1	41.1	41.1	58	27.5	1	3	338	0.00	30.124 
17:20	40.8	40.8	40.8	58	27.2	0	2	338	0.00	30.124 
17:25	40.8	40.8	40.8	59	27.6	0	2	338	0.00	30.124 
17:30	40.6	40.6	40.6	59	27.4	1	2	338	0.00	30.127 
17:35	40.5	40.5	40.5	59	27.3	0	1	315	0.00	30.127 
17:40	40.3	40.3	40.3	59	27.1	0	1	315	0.00	30.127 
17:45	40.3	40.3	40.3	58	26.7	0	1	315	0.00	30.128 
17:50	40.1	40.1	40.1	58	26.5	0	2	315	0.00	30.128 
17:55	39.9	39.9	39.9	59	26.7	0	1	315	0.00	30.128 
18:00	39.8	39.8	39.8	58	26.2	0	2	315	0.00	30.129 
18:05	39.5	39.5	39.5	58	26.0	0	4	45	0.00	30.129 
18:10	39.2	39.2	39.2	58	25.7	0	1	45	0.00	30.129 
18:15	38.9	38.9	38.9	58	25.4	0	1	45	0.00	30.128 
18:20	38.6	38.6	38.6	58	25.1	0	0	---	0.00	30.128 
18:25	38.3	38.3	38.3	59	25.2	0	2	45	0.00	30.128 
18:30	38.2	38.2	38.2	59	25.2	0	1	45	0.00	30.129 
18:35	37.9	37.9	37.9	60	25.3	0	0	---	0.00	30.129 
18:40	37.8	37.8	37.8	60	25.2	0	1	45	0.00	30.129 
18:45	37.5	37.5	37.5	61	25.3	0	0	---	0.00	30.129 
18:50	37.2	37.2	37.2	62	25.4	0	0	---	0.00	30.129 
18:55	36.9	36.9	36.9	62	25.1	0	0	---	0.00	30.129 
19:00	36.6	36.6	36.6	62	24.8	0	0	---	0.00	30.130 
19:05	36.3	36.3	36.3	63	24.9	0	0	---	0.00	30.130 
19:10	36.0	36.0	36.0	63	24.6	0	0	---	0.00	30.130 
19:15	35.8	35.8	35.8	64	24.8	0	0	---	0.00	30.131 
19:20	35.5	35.5	35.5	65	24.9	0	0	---	0.00	30.131 
19:25	35.3	35.3	35.3	65	24.7	0	0	---	0.00	30.131 
19:30	34.9	34.9	34.9	67	25.1	0	0	---	0.00	30.131 
19:35	34.4	34.4	34.4	67	24.6	0	0	---	0.00	30.131 
19:40	34.1	34.1	34.1	68	24.7	0	0	---	0.00	30.131 
19:45	33.7	33.7	33.7	69	24.6	0	0	---	0.00	30.132 
19:50	33.4	33.4	33.4	70	24.7	0	0	---	0.00	30.132 
19:55	33.1	33.1	33.1	71	24.7	0	0	---	0.00	30.132 
20:00	32.8	32.8	32.8	72	24.8	0	0	---	0.00	30.132 
20:05	32.5	32.5	32.5	73	24.8	0	0	---	0.00	30.132 
20:10	32.4	32.4	32.4	73	24.7	0	0	---	0.00	30.132 
20:15	32.1	32.1	32.1	74	24.8	0	0	---	0.00	30.137 
20:20	31.9	31.9	31.9	75	24.9	0	0	---	0.00	30.137 
20:25	31.8	31.8	31.8	76	25.1	0	1	45	0.00	30.137 
20:30	32.1	32.1	32.1	75	25.1	0	2	270	0.00	30.144 
20:35	32.8	32.8	32.8	73	25.1	0	2	270	0.00	30.144 
20:40	33.2	33.2	33.2	72	25.2	0	1	270	0.00	30.144 
20:45	33.4	33.4	33.4	71	25.0	0	1	270	0.00	30.145 
20:50	33.2	33.2	33.2	70	24.5	0	1	270	0.00	30.145 
20:55	33.2	33.2	33.2	70	24.5	0	0	---	0.00	30.145 
21:00	33.1	33.1	33.1	71	24.7	0	1	270	0.00	30.147 
21:05	32.9	32.9	32.9	71	24.5	0	2	270	0.00	30.147 
21:10	32.9	32.9	32.9	71	24.5	0	1	270	0.00	30.147 
21:15	32.8	32.8	32.8	71	24.4	0	1	270	0.00	30.146 
21:20	32.7	32.7	32.7	71	24.4	0	2	270	0.00	30.146 
21:25	32.5	32.5	32.5	72	24.5	0	2	270	0.00	30.146 
21:30	32.4	32.4	32.4	73	24.7	0	2	270	0.00	30.145 
21:35	32.4	32.4	32.4	73	24.7	0	2	270	0.00	30.145 
21:40	32.2	32.2	32.2	73	24.5	0	1	270	0.00	30.145 
21:45	32.1	32.1	32.1	73	24.4	0	1	270	0.00	30.142 
21:50	31.9	31.9	31.9	74	24.6	0	0	---	0.00	30.142 
21:55	31.6	31.6	31.6	74	24.3	0	1	270	0.00	30.142 
22:00	31.5	31.5	31.5	75	24.5	0	1	270	0.00	30.137 
22:05	31.3	31.3	31.3	75	24.3	0	1	270	0.00	30.137 
22:10	31.2	31.2	31.2	76	24.5	0	0	---	0.00	30.137 
22:15	31.0	31.0	31.0	76	24.3	0	0	---	0.00	30.133 
22:20	30.9	30.9	30.9	77	24.6	0	2	270	0.00	30.133 
22:25	30.7	30.7	30.7	77	24.4	0	1	270	0.00	30.133 
22:30	30.6	30.6	30.6	77	24.3	0	1	270	0.00	30.130 
22:35	30.4	30.4	30.4	78	24.4	0	2	270	0.00	30.130 
22:40	30.4	30.4	30.4	78	24.4	0	1	270	0.00	30.130 
22:45	30.3	30.3	30.3	78	24.3	0	1	270	0.00	30.132 
22:50	30.1	30.1	30.1	79	24.4	0	0	---	0.00	30.132 
22:55	30.0	30.0	30.0	79	24.3	0	0	---	0.00	30.132 
23:00	29.7	29.7	29.7	79	24.0	0	0	---	0.00	30.132 
23:05	29.5	29.5	29.5	80	24.1	0	0	---	0.00	30.132 
23:10	29.3	29.3	29.3	80	23.9	0	0	---	0.00	30.132 
23:15	29.1	29.1	29.1	81	24.0	0	0	---	0.00	30.130 
23:20	29.1	29.1	29.1	81	24.0	0	2	270	0.00	30.130 
23:25	29.1	29.1	29.1	82	24.3	0	1	270	0.00	30.130 
23:30	29.0	29.0	29.0	82	24.2	0	1	270	0.00	30.128 
23:35	29.0	29.0	29.0	83	24.5	0	1	270	0.00	30.128 
23:40	28.8	28.8	28.8	83	24.3	0	2	270	0.00	30.128 
23:45	28.8	28.8	28.8	83	24.3	0	1	270	0.00	30.127 
23:50	28.7	28.7	28.7	84	24.5	0	3	270	0.00	30.127 
23:55	28.7	28.7	28.7	84	24.5	0	3	270	0.00	30.127 

CoCoRaHS
IN-AL-39
A2 Web Hosting
Creative Commons License
GoDaddy
search engine by freefind advanced

loaded 2018-11-19 18:40:50 • last modified 2010-11-18 10:43:29
Privacy PolicyDisclaimer
• wx.awcolley.com is powered by PmWiki v.2002016 •
• all content (unless otherwise noted) © 2018 A W Colley